Location: Unnamed
(42.1164°N, 2.7652°E)
Time: 19:39:44
(UTC+02:00)

ISS - Pass Details

Date: 15 May 2021
Orbit: 417 x 422 km, 51.6° (Epoch: 14 June)

Event Time Altitude Azimuth Distance (km) Brightness Sun altitude
Rises 05:14:53 0° 302° (WNW) 2,374 -0.1 -12.2°
Reaches altitude 10° 05:17:01 10° 298° (WNW) 1,507 -1.2 -11.9°
Maximum altitude 05:20:21 59° 219° (SW) 493 -3.8 -11.4°
Drops below altitude 10° 05:23:40 10° 139° (SE) 1,500 -0.9 -10.9°
Sets 05:25:46 0° 135° (SE) 2,362 0.2 -10.6°
